SCP
0 1 0 0 0 0 0 0 1 1 1 1 1 0 0 0 0 0 0 0 0 0
0 0 0 0 0 0 0 0 1 1 1 1 1 1 0 0 0 0 0 0 0 0
0 0 0 0 0 0 0 1 1 1 1 1 1 0 0 0 0 0 0 0 0 0
0 0 0 0 0 0 0 1 1 1 1 1 1 0 0 0 0 0 0 0 0 0
0 0 0 0 0 0 1 1 1 1 1 1 1 0 0 0 0 0 0 0 0 0
0 0 0 0 0 1 1 1 1 1 1 1 0 0 0 0 0 0 0 0 0 0
0 0 1 1 1 1 1 1 1 1 1 0 0 0 0 0 0 0 0 0 0 0
1 1 1 1 1 1 1 1 1 1 1 0 0 0 0 0 0 0 0 0 0 0
2 2 2 1 1 1 1 1 1 1 0 0 0 0 0 0 0 0 0 0 0 0
2 2 1 1 1 1 1 0 0 0 0 0 0 0 0 0 0 0 0 0 0 0
1 2 1 1 1 0 0 0 0 0 0 0 0 0 0 0 0 0 0 0 0 0
1 1 1 0 0 0 0 0 0 0 0 0 0 0 0 0 0 0 0 0 0 0
1 1 0 0 0 0 0 0 0 0 0 0 0 0 0 0 0 0 0 0 0 0
0 0 0 0 0 0 0 0 0 0 0 0 0 0 0 0 0 0 0 0 0 0
Wind_Speed_500mb
59 80 92 89 93 98 81 69 66 60 52 47 41 43 40 40 39 38 38 33 31 31
56 60 73 69 65 69 66 70 66 54 47 36 36 38 38 39 36 36 35 31 31 26
60 52 56 58 57 61 69 73 62 52 43 37 38 40 38 36 32 33 34 35 29 26
68 58 62 63 62 64 65 57 53 52 46 43 43 42 31 35 35 33 36 33 29 25
72 68 68 70 70 66 59 53 50 51 49 47 45 37 40 39 35 33 33 30 28 27
73 72 74 72 68 62 58 52 53 51 51 49 43 40 40 36 35 31 27 25 25 27
67 68 71 71 65 60 54 54 54 51 50 46 38 41 39 36 31 27 25 23 23 27
55 62 59 57 57 52 51 50 49 50 50 46 47 38 36 31 29 28 25 23 23 26
45 48 50 52 49 47 48 51 52 51 52 54 47 36 32 29 29 27 25 26 26 30
43 46 46 46 46 48 51 53 54 56 56 52 40 35 32 30 25 24 26 30 30 29
46 42 43 46 56 55 57 59 60 57 49 43 39 34 31 24 23 25 27 24 23 19
46 44 47 58 60 63 65 66 57 52 43 39 36 33 24 23 23 22 19 18 19 23
49 50 56 64 69 61 67 58 57 47 41 37 31 26 23 22 21 19 17 15 17 23
54 60 64 66 67 69 67 58 50 47 41 32 25 22 24 21 18 14 14 16 18 23
Wind_Direction_500mb
242 240 242 248 250 252 248 245 251 255 259 267 251 229 228 233 234 233 224 226 228 238
245 241 241 244 243 247 239 243 247 251 258 246 224 222 229 233 214 221 220 224 226 235
243 240 239 234 233 231 235 241 244 240 244 225 221 223 226 204 210 219 215 218 221 226
235 229 235 233 233 235 241 245 238 232 232 222 220 225 222 202 218 210 211 212 220 227
227 226 227 234 239 240 244 241 230 228 222 217 221 220 199 207 210 205 206 217 226 231
221 221 226 233 240 246 238 224 215 217 213 214 217 200 198 210 196 202 212 223 230 233
220 222 226 232 237 225 212 209 209 207 208 211 198 194 201 188 194 203 210 216 223 225
215 215 214 214 206 203 203 204 202 204 200 191 186 190 187 197 203 199 206 218 225 227
197 199 194 193 197 197 196 201 199 194 184 180 181 180 185 189 196 210 224 234 237 238
186 182 188 196 194 191 191 190 186 177 178 174 180 181 187 198 210 227 237 244 245 241
185 187 194 194 182 183 185 176 172 169 173 179 179 187 192 202 221 236 240 238 236 222
201 199 196 191 186 180 170 166 162 166 170 181 181 186 196 217 227 226 227 231 222 207
207 207 191 186 178 170 162 162 165 168 175 176 185 193 207 215 213 221 222 220 206 194
204 196 181 178 164 161 162 162 168 171 171 177 186 197 199 202 210 219 203 183 166 172
Wind_Speed_850mb
59 80 92 89 93 98 81 69 66 60 52 47 41 43 40 40 39 38 38 33 31 31
56 60 73 69 65 69 66 70 66 54 47 36 36 38 38 39 36 36 35 31 31 26
60 52 56 58 57 61 69 73 62 52 43 37 38 40 38 36 32 33 34 35 29 26
68 58 62 63 62 64 65 57 53 52 46 43 43 42 31 35 35 33 36 33 29 25
72 68 68 70 70 66 59 53 50 51 49 47 45 37 40 39 35 33 33 30 28 27
73 72 74 72 68 62 58 52 53 51 51 49 43 40 40 36 35 31 27 25 25 27
67 68 71 71 65 60 54 54 54 51 50 46 38 41 39 36 31 27 25 23 23 27
55 62 59 57 57 52 51 50 49 50 50 46 47 38 36 31 29 28 25 23 23 26
45 48 50 52 49 47 48 51 52 51 52 54 47 36 32 29 29 27 25 26 26 30
43 46 46 46 46 48 51 53 54 56 56 52 40 35 32 30 25 24 26 30 30 29
46 42 43 46 56 55 57 59 60 57 49 43 39 34 31 24 23 25 27 24 23 19
46 44 47 58 60 63 65 66 57 52 43 39 36 33 24 23 23 22 19 18 19 23
49 50 56 64 69 61 67 58 57 47 41 37 31 26 23 22 21 19 17 15 17 23
54 60 64 66 67 69 67 58 50 47 41 32 25 22 24 21 18 14 14 16 18 23
Wind_Direction_850mb
242 240 242 248 250 252 248 245 251 255 259 267 251 229 228 233 234 233 224 226 228 238
245 241 241 244 243 247 239 243 247 251 258 246 224 222 229 233 214 221 220 224 226 235
243 240 239 234 233 231 235 241 244 240 244 225 221 223 226 204 210 219 215 218 221 226
235 229 235 233 233 235 241 245 238 232 232 222 220 225 222 202 218 210 211 212 220 227
227 226 227 234 239 240 244 241 230 228 222 217 221 220 199 207 210 205 206 217 226 231
221 221 226 233 240 246 238 224 215 217 213 214 217 200 198 210 196 202 212 223 230 233
220 222 226 232 237 225 212 209 209 207 208 211 198 194 201 188 194 203 210 216 223 225
215 215 214 214 206 203 203 204 202 204 200 191 186 190 187 197 203 199 206 218 225 227
197 199 194 193 197 197 196 201 199 194 184 180 181 180 185 189 196 210 224 234 237 238
186 182 188 196 194 191 191 190 186 177 178 174 180 181 187 198 210 227 237 244 245 241
185 187 194 194 182 183 185 176 172 169 173 179 179 187 192 202 221 236 240 238 236 222
201 199 196 191 186 180 170 166 162 166 170 181 181 186 196 217 227 226 227 231 222 207
207 207 191 186 178 170 162 162 165 168 175 176 185 193 207 215 213 221 222 220 206 194
204 196 181 178 164 161 162 162 168 171 171 177 186 197 199 202 210 219 203 183 166 172